VOZ800 YSSY-YMML

Flight info

Callsign VOZ800
Flight time 1h 13m
Altitude 38000
Route WOL H65 LEECE Q29 ML
Aircraft B737/M-SDE2E3FGHIRWXY/LB1

Departure

Time 2026-05-06 23:34
Airport Sydney Kingsford Smith International Airport (YSSY)

Arrival

Time 2026-05-07 00:48
Airport Melbourne Airport (YMML)
Time Latitude Longitude Altitude Speed Heading
2026-05-06 22:39 -33.93636 151.17986 29 ft 0 kts 280°
2026-05-06 23:19 -33.93640 151.18014 29 ft 4 kts 277°
2026-05-06 23:19 -33.93640 151.18043 29 ft 4 kts 238°
2026-05-06 23:19 -33.93633 151.18052 29 ft 1 kts 182°
2026-05-06 23:20 -33.93655 151.18051 29 ft 4 kts 181°
2026-05-06 23:20 -33.93669 151.18051 29 ft 0 kts 180°
2026-05-06 23:22 -33.93704 151.18060 29 ft 7 kts 162°
2026-05-06 23:22 -33.93747 151.18090 29 ft 7 kts 139°
2026-05-06 23:23 -33.93753 151.18145 29 ft 8 kts 74°
2026-05-06 23:23 -33.93749 151.18217 29 ft 10 kts 115°
2026-05-06 23:23 -33.93815 151.18254 29 ft 12 kts 164°
2026-05-06 23:23 -33.93907 151.18285 28 ft 15 kts 165°
2026-05-06 23:24 -33.94012 151.18321 29 ft 16 kts 164°
2026-05-06 23:24 -33.94082 151.18291 29 ft 12 kts 251°
2026-05-06 23:24 -33.94105 151.18197 29 ft 12 kts 253°
2026-05-06 23:24 -33.94127 151.18104 29 ft 12 kts 254°
2026-05-06 23:25 -33.94150 151.18012 29 ft 11 kts 253°
2026-05-06 23:25 -33.94173 151.17911 29 ft 14 kts 254°
2026-05-06 23:25 -33.94242 151.17867 29 ft 13 kts 167°
2026-05-06 23:25 -33.94337 151.17892 29 ft 15 kts 167°
2026-05-06 23:26 -33.94448 151.17910 29 ft 15 kts 196°
2026-05-06 23:26 -33.94543 151.17886 29 ft 14 kts 168°
2026-05-06 23:26 -33.94639 151.17912 29 ft 14 kts 168°
2026-05-06 23:26 -33.94735 151.17938 29 ft 15 kts 169°
2026-05-06 23:27 -33.94840 151.17964 29 ft 16 kts 168°
2026-05-06 23:27 -33.94953 151.17993 29 ft 17 kts 168°
2026-05-06 23:27 -33.95066 151.18022 29 ft 16 kts 168°
2026-05-06 23:27 -33.95158 151.18056 29 ft 12 kts 138°
2026-05-06 23:28 -33.95167 151.18152 29 ft 13 kts 76°
2026-05-06 23:28 -33.95145 151.18257 29 ft 14 kts 76°
2026-05-06 23:28 -33.95121 151.18381 29 ft 16 kts 78°
2026-05-06 23:28 -33.95114 151.18509 29 ft 15 kts 107°
2026-05-06 23:29 -33.95175 151.18608 29 ft 15 kts 137°
2026-05-06 23:29 -33.95260 151.18690 29 ft 17 kts 150°
2026-05-06 23:29 -33.95375 151.18734 29 ft 18 kts 168°
2026-05-06 23:29 -33.95501 151.18767 29 ft 19 kts 167°
2026-05-06 23:30 -33.95630 151.18802 29 ft 19 kts 168°
2026-05-06 23:30 -33.95755 151.18833 29 ft 18 kts 167°
2026-05-06 23:30 -33.95876 151.18864 29 ft 17 kts 168°
2026-05-06 23:30 -33.95993 151.18894 29 ft 17 kts 168°
2026-05-06 23:31 -33.96117 151.18927 29 ft 19 kts 168°
2026-05-06 23:31 -33.96256 151.18963 29 ft 21 kts 168°
2026-05-06 23:31 -33.96401 151.19000 29 ft 21 kts 168°
2026-05-06 23:31 -33.96539 151.19038 29 ft 20 kts 166°
2026-05-06 23:32 -33.96676 151.19073 29 ft 20 kts 173°
2026-05-06 23:32 -33.96809 151.19063 29 ft 18 kts 175°
2026-05-06 23:32 -33.96928 151.19093 29 ft 17 kts 168°
2026-05-06 23:32 -33.97042 151.19121 29 ft 16 kts 168°
2026-05-06 23:33 -33.97125 151.19183 29 ft 14 kts 101°
2026-05-06 23:33 -33.97108 151.19300 31 ft 15 kts 77°
2026-05-06 23:33 -33.97076 151.19375 28 ft 9 kts
2026-05-06 23:33 -33.97010 151.19359 25 ft 13 kts 347°
2026-05-06 23:34 -33.96704 151.19280 22 ft 81 kts 348°
2026-05-06 23:34 -33.95938 151.19080 29 ft 141 kts 348°
2026-05-06 23:34 -33.94881 151.18829 410 ft 161 kts 349°
2026-05-06 23:34 -33.93709 151.18737 940 ft 184 kts 10°
2026-05-06 23:35 -33.92582 151.19667 1323 ft 216 kts 56°
2026-05-06 23:35 -33.92168 151.21403 1974 ft 222 kts 97°
2026-05-06 23:35 -33.92671 151.23147 2552 ft 220 kts 125°
2026-05-06 23:35 -33.93408 151.24710 3521 ft 209 kts 124°
2026-05-06 23:36 -33.93913 151.26382 4165 ft 227 kts 97°
2026-05-06 23:36 -33.93913 151.28373 4497 ft 246 kts 90°
2026-05-06 23:36 -33.93854 151.30470 5014 ft 255 kts 88°
2026-05-06 23:36 -33.93748 151.32642 5523 ft 264 kts 86°
2026-05-06 23:37 -33.93628 151.34895 5928 ft 285 kts 86°
2026-05-06 23:37 -33.93523 151.37337 6596 ft 292 kts 86°
2026-05-06 23:37 -33.93429 151.39801 7397 ft 300 kts 86°
2026-05-06 23:37 -33.93342 151.42338 8170 ft 307 kts 85°
2026-05-06 23:38 -33.93261 151.44935 9069 ft 312 kts 85°
2026-05-06 23:38 -33.93182 151.47562 9976 ft 316 kts 84°
2026-05-06 23:38 -33.93328 151.50232 10729 ft 328 kts 105°
2026-05-06 23:38 -33.94423 151.52647 11496 ft 333 kts 135°
2026-05-06 23:39 -33.96273 151.54277 12319 ft 330 kts 161°
2026-05-06 23:39 -33.98515 151.54891 12695 ft 337 kts 188°
2026-05-06 23:39 -34.00825 151.54305 12891 ft 346 kts 211°
2026-05-06 23:39 -34.02864 151.52735 13276 ft 349 kts 230°
2026-05-06 23:40 -34.04547 151.50622 14023 ft 350 kts 235°
2026-05-06 23:40 -34.06144 151.48395 14858 ft 351 kts 237°
2026-05-06 23:40 -34.07692 151.46144 15699 ft 354 kts 238°
2026-05-06 23:40 -34.09270 151.43850 16547 ft 357 kts 238°
2026-05-06 23:41 -34.10900 151.41511 17370 ft 361 kts 238°
2026-05-06 23:41 -34.12520 151.39221 18150 ft 365 kts 238°
2026-05-06 23:41 -34.14211 151.36854 18865 ft 369 kts 237°
2026-05-06 23:41 -34.15904 151.34503 19559 ft 372 kts 238°
2026-05-06 23:42 -34.17617 151.32131 20217 ft 378 kts 238°
2026-05-06 23:42 -34.19339 151.29748 20792 ft 384 kts 238°
2026-05-06 23:42 -34.21104 151.27312 21483 ft 386 kts 238°
2026-05-06 23:42 -34.22904 151.24829 22189 ft 389 kts 238°
2026-05-06 23:43 -34.24668 151.22393 22841 ft 392 kts 238°
2026-05-06 23:43 -34.26466 151.19908 23490 ft 395 kts 238°
2026-05-06 23:43 -34.28282 151.17396 24019 ft 398 kts 239°
2026-05-06 23:43 -34.30112 151.14861 24531 ft 401 kts 239°
2026-05-06 23:44 -34.31949 151.12316 25055 ft 403 kts 239°
2026-05-06 23:44 -34.33799 151.09751 25600 ft 406 kts 240°
2026-05-06 23:44 -34.35666 151.07158 26025 ft 411 kts 240°
2026-05-06 23:44 -34.37553 151.04536 26493 ft 413 kts 240°
2026-05-06 23:45 -34.39453 151.01894 26818 ft 420 kts 240°
2026-05-06 23:45 -34.41376 150.99214 27178 ft 424 kts 240°
2026-05-06 23:45 -34.43324 150.96506 27658 ft 426 kts 240°
2026-05-06 23:45 -34.45274 150.93794 28151 ft 427 kts 240°
2026-05-06 23:46 -34.47234 150.91065 28606 ft 429 kts 240°
2026-05-06 23:46 -34.49171 150.88363 29012 ft 432 kts 241°
2026-05-06 23:46 -34.51151 150.85599 29460 ft 435 kts 241°
2026-05-06 23:46 -34.53143 150.82815 29900 ft 436 kts 241°
2026-05-06 23:47 -34.55126 150.80048 30474 ft 432 kts 242°
2026-05-06 23:47 -34.56897 150.77198 31114 ft 412 kts 250°
2026-05-06 23:47 -34.58346 150.74264 31754 ft 402 kts 251°
2026-05-06 23:47 -34.59710 150.71321 32263 ft 398 kts 252°
2026-05-06 23:48 -34.61044 150.68389 32639 ft 398 kts 251°
2026-05-06 23:48 -34.62383 150.65453 33102 ft 396 kts 251°
2026-05-06 23:48 -34.63724 150.62547 33643 ft 393 kts 250°
2026-05-06 23:48 -34.65062 150.59678 34138 ft 389 kts 250°
2026-05-06 23:49 -34.66402 150.56822 34400 ft 390 kts 250°
2026-05-06 23:49 -34.67750 150.53953 34636 ft 392 kts 250°
2026-05-06 23:49 -34.69085 150.51117 34919 ft 392 kts 250°
2026-05-06 23:49 -34.70440 150.48247 35240 ft 391 kts 250°
2026-05-06 23:50 -34.71795 150.45373 35474 ft 393 kts 249°
2026-05-06 23:50 -34.74536 150.39545 35841 ft 398 kts 249°
2026-05-06 23:50 -34.75911 150.36630 36055 ft 399 kts 249°
2026-05-06 23:51 -34.78686 150.30733 36040 ft 402 kts 249°
2026-05-06 23:51 -34.81460 150.24833 36065 ft 401 kts 249°
2026-05-06 23:52 -34.84204 150.18981 36062 ft 401 kts 249°
2026-05-06 23:52 -34.86968 150.13075 36056 ft 401 kts 248°
2026-05-06 23:53 -34.89277 150.08132 36061 ft 401 kts 248°
2026-05-06 23:53 -34.92014 150.02264 36070 ft 401 kts 248°
2026-05-06 23:54 -34.94774 149.96337 36105 ft 403 kts 248°
2026-05-06 23:54 -34.97544 149.90373 36075 ft 406 kts 248°
2026-05-06 23:55 -35.00328 149.84374 36078 ft 407 kts 248°
2026-05-06 23:55 -35.03121 149.78346 36081 ft 408 kts 248°
2026-05-06 23:56 -35.05915 149.72305 36080 ft 409 kts 248°
2026-05-06 23:56 -35.08713 149.66244 36114 ft 411 kts 247°
2026-05-06 23:57 -35.11526 149.60139 36097 ft 413 kts 247°
2026-05-06 23:57 -35.14346 149.54008 36097 ft 414 kts 246°
2026-05-06 23:58 -35.17148 149.47907 36083 ft 414 kts 246°
2026-05-06 23:58 -35.19965 149.41763 36071 ft 414 kts 246°
2026-05-06 23:59 -35.22773 149.35625 36069 ft 414 kts 246°
2026-05-06 23:59 -35.25587 149.29463 36056 ft 414 kts 246°
2026-05-07 00:00 -35.28395 149.23302 36049 ft 415 kts 246°
2026-05-07 00:00 -35.31474 149.17298 36056 ft 419 kts 240°
2026-05-07 00:01 -35.34940 149.11539 36048 ft 420 kts 239°
2026-05-07 00:01 -35.38432 149.05785 36107 ft 421 kts 239°
2026-05-07 00:02 -35.41899 149.00003 36109 ft 420 kts 239°
2026-05-07 00:02 -35.45346 148.94203 36097 ft 420 kts 239°
2026-05-07 00:03 -35.48773 148.88414 36111 ft 419 kts 239°
2026-05-07 00:03 -35.52198 148.82615 36109 ft 420 kts 239°
2026-05-07 00:04 -35.55624 148.76805 36124 ft 420 kts 239°
2026-05-07 00:04 -35.59047 148.70993 36117 ft 420 kts 238°
2026-05-07 00:05 -35.62443 148.65218 36131 ft 419 kts 238°
2026-05-07 00:05 -35.65850 148.59415 36144 ft 418 kts 238°
2026-05-07 00:06 -35.69251 148.53609 36151 ft 418 kts 238°
2026-05-07 00:06 -35.72652 148.47795 36151 ft 418 kts 238°
2026-05-07 00:07 -35.76044 148.41984 36161 ft 417 kts 238°
2026-05-07 00:07 -35.79422 148.36193 36202 ft 417 kts 238°
2026-05-07 00:08 -35.82783 148.30419 36177 ft 417 kts 238°
2026-05-07 00:08 -35.86158 148.24611 36188 ft 417 kts 238°
2026-05-07 00:09 -35.89536 148.18788 36171 ft 417 kts 237°
2026-05-07 00:09 -35.92905 148.12971 36183 ft 416 kts 237°
2026-05-07 00:10 -35.96273 148.07145 36193 ft 417 kts 237°
2026-05-07 00:10 -35.99636 148.01319 36186 ft 417 kts 237°
2026-05-07 00:11 -36.02999 147.95483 36189 ft 417 kts 237°
2026-05-07 00:11 -36.06358 147.89643 36178 ft 416 kts 236°
2026-05-07 00:12 -36.09702 147.83813 36179 ft 415 kts 236°
2026-05-07 00:12 -36.13049 147.77983 36182 ft 415 kts 236°
2026-05-07 00:13 -36.16384 147.72158 36180 ft 415 kts 237°
2026-05-07 00:13 -36.19715 147.66327 36195 ft 414 kts 237°
2026-05-07 00:14 -36.23018 147.60537 36186 ft 414 kts 236°
2026-05-07 00:14 -36.26339 147.54703 36186 ft 414 kts 236°
2026-05-07 00:15 -36.29651 147.48875 36192 ft 413 kts 236°
2026-05-07 00:15 -36.32960 147.43044 36187 ft 413 kts 236°
2026-05-07 00:16 -36.36268 147.37205 36176 ft 414 kts 235°
2026-05-07 00:16 -36.39576 147.31364 36189 ft 413 kts 235°
2026-05-07 00:17 -36.42849 147.25565 36193 ft 413 kts 235°
2026-05-07 00:17 -36.46141 147.19719 36192 ft 412 kts 235°
2026-05-07 00:18 -36.49426 147.13879 36202 ft 412 kts 235°
2026-05-07 00:18 -36.52709 147.08034 36195 ft 412 kts 234°
2026-05-07 00:19 -36.55986 147.02190 36188 ft 411 kts 234°
2026-05-07 00:19 -36.59246 146.96366 36197 ft 409 kts 234°
2026-05-07 00:20 -36.62501 146.90541 36211 ft 409 kts 234°
2026-05-07 00:20 -36.65725 146.84762 36201 ft 409 kts 234°
2026-05-07 00:21 -36.68960 146.78952 36195 ft 407 kts 234°
2026-05-07 00:21 -36.72185 146.73152 36201 ft 407 kts 234°
2026-05-07 00:22 -36.75405 146.67350 36209 ft 406 kts 234°
2026-05-07 00:22 -36.78617 146.61553 36212 ft 406 kts 234°
2026-05-07 00:23 -36.81820 146.55761 36200 ft 400 kts 234°
2026-05-07 00:23 -36.83378 146.52938 35983 ft 391 kts 233°
2026-05-07 00:23 -36.84921 146.50142 35352 ft 392 kts 233°
2026-05-07 00:24 -36.86475 146.47325 34581 ft 396 kts 233°
2026-05-07 00:24 -36.88044 146.44479 33768 ft 399 kts 232°
2026-05-07 00:24 -36.89629 146.41605 32828 ft 403 kts 231°
2026-05-07 00:24 -36.91218 146.38709 32021 ft 404 kts 230°
2026-05-07 00:25 -36.92774 146.35849 31320 ft 402 kts 229°
2026-05-07 00:25 -36.94361 146.32991 30650 ft 399 kts 227°
2026-05-07 00:25 -36.95923 146.30158 30055 ft 392 kts 226°
2026-05-07 00:25 -36.97430 146.27376 29581 ft 381 kts 226°
2026-05-07 00:26 -36.98901 146.24651 28945 ft 376 kts 226°
2026-05-07 00:26 -37.00360 146.21957 28267 ft 371 kts 225°
2026-05-07 00:26 -37.01811 146.19316 27601 ft 364 kts 224°
2026-05-07 00:26 -37.03227 146.16736 26814 ft 356 kts 224°
2026-05-07 00:27 -37.04618 146.14200 25946 ft 351 kts 224°
2026-05-07 00:27 -37.05989 146.11696 25125 ft 346 kts 224°
2026-05-07 00:27 -37.07336 146.09232 24354 ft 340 kts 224°
2026-05-07 00:27 -37.08656 146.06811 23723 ft 334 kts 223°
2026-05-07 00:28 -37.09944 146.04451 22981 ft 330 kts 224°
2026-05-07 00:28 -37.11223 146.02100 22508 ft 322 kts 224°
2026-05-07 00:28 -37.12475 145.99796 22002 ft 318 kts 224°
2026-05-07 00:28 -37.13721 145.97510 21506 ft 318 kts 224°
2026-05-07 00:29 -37.14972 145.95217 20974 ft 320 kts 225°
2026-05-07 00:29 -37.16234 145.92904 20464 ft 322 kts 225°
2026-05-07 00:30 -37.19932 145.86069 18901 ft 308 kts 226°
2026-05-07 00:30 -37.21131 145.83853 18361 ft 306 kts 227°
2026-05-07 00:30 -37.22329 145.81641 17841 ft 306 kts 227°
2026-05-07 00:30 -37.23516 145.79445 17612 ft 305 kts 228°
2026-05-07 00:31 -37.24721 145.77222 17279 ft 309 kts 227°
2026-05-07 00:31 -37.25926 145.74990 17037 ft 308 kts 227°
2026-05-07 00:31 -37.27129 145.72759 16773 ft 309 kts 228°
2026-05-07 00:31 -37.28337 145.70517 16496 ft 309 kts 229°
2026-05-07 00:32 -37.29543 145.68277 16228 ft 310 kts 230°
2026-05-07 00:32 -37.30521 145.65822 15970 ft 322 kts 244°
2026-05-07 00:32 -37.31101 145.63091 15735 ft 325 kts 248°
2026-05-07 00:32 -37.31614 145.60353 15482 ft 326 kts 249°
2026-05-07 00:33 -37.32126 145.57575 15039 ft 327 kts 250°
2026-05-07 00:33 -37.32640 145.54815 14531 ft 322 kts 250°
2026-05-07 00:33 -37.33154 145.52093 13968 ft 319 kts 251°
2026-05-07 00:33 -37.33665 145.49404 13425 ft 314 kts 251°
2026-05-07 00:34 -37.34170 145.46759 12899 ft 309 kts 251°
2026-05-07 00:34 -37.34673 145.44151 12384 ft 304 kts 251°
2026-05-07 00:34 -37.35170 145.41583 11871 ft 304 kts 251°
2026-05-07 00:34 -37.35670 145.38994 11350 ft 305 kts 251°
2026-05-07 00:35 -37.36166 145.36415 10827 ft 302 kts 251°
2026-05-07 00:35 -37.36642 145.33919 10693 ft 289 kts 251°
2026-05-07 00:35 -37.37105 145.31495 10568 ft 279 kts 251°
2026-05-07 00:35 -37.37545 145.29183 10436 ft 267 kts 251°
2026-05-07 00:36 -37.37969 145.26961 10304 ft 254 kts 251°
2026-05-07 00:36 -37.38373 145.24849 10062 ft 246 kts 250°
2026-05-07 00:36 -37.38767 145.22791 9793 ft 239 kts 250°
2026-05-07 00:36 -37.39154 145.20776 9479 ft 241 kts 250°
2026-05-07 00:37 -37.39549 145.18722 9144 ft 242 kts 250°
2026-05-07 00:37 -37.39938 145.16678 8821 ft 239 kts 250°
2026-05-07 00:37 -37.40324 145.14648 8361 ft 241 kts 250°
2026-05-07 00:37 -37.40714 145.12600 7993 ft 240 kts 250°
2026-05-07 00:38 -37.41100 145.10565 7649 ft 238 kts 250°
2026-05-07 00:38 -37.41483 145.08545 7319 ft 236 kts 250°
2026-05-07 00:38 -37.41864 145.06535 6989 ft 235 kts 250°
2026-05-07 00:38 -37.42241 145.04546 6693 ft 232 kts 250°
2026-05-07 00:39 -37.42610 145.02592 6493 ft 225 kts 250°
2026-05-07 00:39 -37.42962 145.00714 6343 ft 219 kts 250°
2026-05-07 00:39 -37.43317 144.98842 6068 ft 219 kts 250°
2026-05-07 00:39 -37.43666 144.96990 5782 ft 216 kts 250°
2026-05-07 00:40 -37.44010 144.95162 5509 ft 214 kts 250°
2026-05-07 00:40 -37.44328 144.93327 5238 ft 217 kts 253°
2026-05-07 00:40 -37.44593 144.91452 4965 ft 217 kts 254°
2026-05-07 00:40 -37.44846 144.89611 4838 ft 209 kts 253°
2026-05-07 00:41 -37.45088 144.87860 4716 ft 201 kts 253°
2026-05-07 00:41 -37.45320 144.86185 4667 ft 187 kts 253°
2026-05-07 00:41 -37.45536 144.84630 4567 ft 174 kts 252°
2026-05-07 00:41 -37.45744 144.83151 4455 ft 173 kts 252°
2026-05-07 00:42 -37.46015 144.81691 4255 ft 167 kts 237°
2026-05-07 00:42 -37.46871 144.80897 4160 ft 158 kts 191°
2026-05-07 00:42 -37.47607 144.80856 4044 ft 160 kts 188°
2026-05-07 00:42 -37.48716 144.80804 3830 ft 159 kts 186°
2026-05-07 00:43 -37.49812 144.80828 3603 ft 155 kts 185°
2026-05-07 00:43 -37.50893 144.80881 3405 ft 158 kts 182°
2026-05-07 00:43 -37.51975 144.81018 3186 ft 151 kts 180°
2026-05-07 00:43 -37.52979 144.81188 2973 ft 140 kts 180°
2026-05-07 00:44 -37.53948 144.81362 2780 ft 142 kts 180°
2026-05-07 00:44 -37.54929 144.81543 2580 ft 143 kts 179°
2026-05-07 00:44 -37.55917 144.81728 2392 ft 142 kts 179°
2026-05-07 00:44 -37.56840 144.81904 2199 ft 127 kts 180°
2026-05-07 00:45 -37.57672 144.82061 2015 ft 116 kts 182°
2026-05-07 00:45 -37.58470 144.82208 1850 ft 117 kts 182°
2026-05-07 00:45 -37.59273 144.82358 1713 ft 116 kts 181°
2026-05-07 00:45 -37.60061 144.82506 1503 ft 115 kts 182°
2026-05-07 00:46 -37.60868 144.82655 1371 ft 124 kts 179°
2026-05-07 00:46 -37.61733 144.82818 1170 ft 126 kts 178°
2026-05-07 00:46 -37.62592 144.82980 1008 ft 125 kts 179°
2026-05-07 00:46 -37.63469 144.83138 826 ft 130 kts 176°
2026-05-07 00:47 -37.64342 144.83321 674 ft 126 kts 176°
2026-05-07 00:47 -37.65217 144.83474 523 ft 126 kts 176°
2026-05-07 00:47 -37.66077 144.83636 414 ft 117 kts 173°
2026-05-07 00:47 -37.66756 144.83759 395 ft 77 kts 171°
2026-05-07 00:48 -37.67148 144.83832 381 ft 45 kts 172°
2026-05-07 00:48 -37.67449 144.83887 372 ft 42 kts 172°
2026-05-07 00:48 -37.67724 144.83940 360 ft 33 kts 172°
2026-05-07 00:48 -37.67858 144.84011 363 ft 19 kts 124°
2026-05-07 00:49 -37.67871 144.84137 364 ft 12 kts 82°
2026-05-07 00:49 -37.67859 144.84236 359 ft 11 kts 81°
2026-05-07 00:49 -37.67831 144.84324 361 ft 11 kts 48°
2026-05-07 00:49 -37.67767 144.84368 369 ft 11 kts
2026-05-07 00:50 -37.67694 144.84361 368 ft 11 kts 352°
2026-05-07 00:50 -37.67614 144.84347 371 ft 12 kts 352°
2026-05-07 00:50 -37.67525 144.84330 374 ft 13 kts 351°
2026-05-07 00:50 -37.67436 144.84313 376 ft 13 kts 352°
2026-05-07 00:51 -37.67344 144.84297 378 ft 14 kts 352°
2026-05-07 00:51 -37.67245 144.84279 380 ft 6 kts 353°
2026-05-07 00:51 -37.67214 144.84305 381 ft 7 kts 57°
2026-05-07 00:51 -37.67202 144.84373 382 ft 9 kts 84°
2026-05-07 00:52 -37.67201 144.84460 383 ft 11 kts 104°